﻿測定場所 (Monitoring sites),日付 (Measurement date),時間 (Measurement time),線量率 最大値 (max) μGy/h,線量率 最小値 (min) μGy/h,線量率 平均値 (average) μGy/h,
調布 (Chofu),2024-04-14,23:01～24:00,0.0308,0.0259,0.0276,
調布 (Chofu),2024-04-14,22:01～23:00,0.0295,0.0259,0.0277,
調布 (Chofu),2024-04-14,21:01～22:00,0.0297,0.0256,0.0277,
調布 (Chofu),2024-04-14,20:01～21:00,0.0298,0.0247,0.0275,
調布 (Chofu),2024-04-14,19:01～20:00,0.0308,0.0256,0.0276,
調布 (Chofu),2024-04-14,18:01～19:00,0.0299,0.0249,0.0274,
調布 (Chofu),2024-04-14,17:01～18:00,0.0296,0.0256,0.0276,
調布 (Chofu),2024-04-14,16:01～17:00,0.0297,0.0251,0.0276,
調布 (Chofu),2024-04-14,15:01～16:00,0.0307,0.0256,0.0278,
調布 (Chofu),2024-04-14,14:01～15:00,0.0299,0.0252,0.0279,
調布 (Chofu),2024-04-14,13:01～14:00,0.0310,0.0257,0.0276,
調布 (Chofu),2024-04-14,12:01～13:00,0.0296,0.0255,0.0277,
調布 (Chofu),2024-04-14,11:01～12:00,0.0304,0.0259,0.0278,
調布 (Chofu),2024-04-14,10:01～11:00,0.0303,0.0259,0.0276,
調布 (Chofu),2024-04-14,09:01～10:00,0.0298,0.0260,0.0280,
調布 (Chofu),2024-04-14,08:01～09:00,0.0303,0.0260,0.0281,
調布 (Chofu),2024-04-14,07:01～08:00,0.0305,0.0259,0.0281,
調布 (Chofu),2024-04-14,06:01～07:00,0.0311,0.0257,0.0285,
調布 (Chofu),2024-04-14,05:01～06:00,0.0298,0.0260,0.0279,
調布 (Chofu),2024-04-14,04:01～05:00,0.0306,0.0261,0.0282,
調布 (Chofu),2024-04-14,03:01～04:00,0.0306,0.0266,0.0285,
調布 (Chofu),2024-04-14,02:01～03:00,0.0303,0.0257,0.0283,
調布 (Chofu),2024-04-14,01:01～02:00,0.0298,0.0260,0.0279,
調布 (Chofu),2024-04-14,00:01～01:00,0.0294,0.0252,0.0275,
調布 (Chofu),2024-04-13,23:01～24:00,0.0300,0.0255,0.0273,
調布 (Chofu),2024-04-13,22:01～23:00,0.0301,0.0256,0.0274,
調布 (Chofu),2024-04-13,21:01～22:00,0.0294,0.0258,0.0275,
調布 (Chofu),2024-04-13,20:01～21:00,0.0295,0.0250,0.0275,
調布 (Chofu),2024-04-13,19:01～20:00,0.0290,0.0256,0.0272,
調布 (Chofu),2024-04-13,18:01～19:00,0.0301,0.0250,0.0276,
調布 (Chofu),2024-04-13,17:01～18:00,0.0298,0.0256,0.0274,
調布 (Chofu),2024-04-13,16:01～17:00,0.0296,0.0257,0.0274,
調布 (Chofu),2024-04-13,15:01～16:00,0.0298,0.0257,0.0276,
調布 (Chofu),2024-04-13,14:01～15:00,0.0300,0.0260,0.0278,
調布 (Chofu),2024-04-13,13:01～14:00,0.0298,0.0257,0.0279,
調布 (Chofu),2024-04-13,12:01～13:00,0.0314,0.0263,0.0281,
調布 (Chofu),2024-04-13,11:01～12:00,0.0300,0.0263,0.0277,
調布 (Chofu),2024-04-13,10:01～11:00,0.0296,0.0264,0.0279,
調布 (Chofu),2024-04-13,09:01～10:00,0.0298,0.0254,0.0279,
調布 (Chofu),2024-04-13,08:01～09:00,0.0310,0.0253,0.0280,
調布 (Chofu),2024-04-13,07:01～08:00,0.0308,0.0261,0.0283,
調布 (Chofu),2024-04-13,06:01～07:00,0.0297,0.0258,0.0280,
調布 (Chofu),2024-04-13,05:01～06:00,0.0303,0.0261,0.0282,
調布 (Chofu),2024-04-13,04:01～05:00,0.0298,0.0264,0.0281,
調布 (Chofu),2024-04-13,03:01～04:00,0.0304,0.0264,0.0279,
調布 (Chofu),2024-04-13,02:01～03:00,0.0290,0.0256,0.0275,
調布 (Chofu),2024-04-13,01:01～02:00,0.0291,0.0248,0.0272,
調布 (Chofu),2024-04-13,00:01～01:00,0.0297,0.0252,0.0276,
調布 (Chofu),2024-04-12,23:01～24:00,0.0290,0.0256,0.0273,
調布 (Chofu),2024-04-12,22:01～23:00,0.0295,0.0259,0.0276,
調布 (Chofu),2024-04-12,21:01～22:00,0.0293,0.0257,0.0273,
調布 (Chofu),2024-04-12,20:01～21:00,0.0294,0.0249,0.0273,
調布 (Chofu),2024-04-12,19:01～20:00,0.0293,0.0248,0.0271,
調布 (Chofu),2024-04-12,18:01～19:00,0.0293,0.0249,0.0273,
調布 (Chofu),2024-04-12,17:01～18:00,0.0303,0.0258,0.0274,
調布 (Chofu),2024-04-12,16:01～17:00,0.0297,0.0252,0.0274,
調布 (Chofu),2024-04-12,15:01～16:00,0.0301,0.0260,0.0277,
調布 (Chofu),2024-04-12,14:01～15:00,0.0300,0.0257,0.0280,
調布 (Chofu),2024-04-12,13:01～14:00,0.0309,0.0264,0.0287,
調布 (Chofu),2024-04-12,12:01～13:00,0.0329,0.0279,0.0302,
調布 (Chofu),2024-04-12,11:01～12:00,0.0318,0.0262,0.0285,
調布 (Chofu),2024-04-12,10:01～11:00,0.0300,0.0247,0.0276,
調布 (Chofu),2024-04-12,09:01～10:00,0.0301,0.0262,0.0279,
調布 (Chofu),2024-04-12,08:01～09:00,0.0298,0.0252,0.0277,
調布 (Chofu),2024-04-12,07:01～08:00,0.0301,0.0247,0.0279,
調布 (Chofu),2024-04-12,06:01～07:00,0.0305,0.0259,0.0280,
調布 (Chofu),2024-04-12,05:01～06:00,0.0304,0.0264,0.0282,
調布 (Chofu),2024-04-12,04:01～05:00,0.0303,0.0260,0.0281,
調布 (Chofu),2024-04-12,03:01～04:00,0.0301,0.0254,0.0278,
調布 (Chofu),2024-04-12,02:01～03:00,0.0310,0.0263,0.0279,
調布 (Chofu),2024-04-12,01:01～02:00,0.0301,0.0257,0.0278,
調布 (Chofu),2024-04-12,00:01～01:00,0.0294,0.0245,0.0275,
調布 (Chofu),2024-04-11,23:01～24:00,0.0289,0.0252,0.0272,
調布 (Chofu),2024-04-11,22:01～23:00,0.0304,0.0255,0.0273,
調布 (Chofu),2024-04-11,21:01～22:00,0.0287,0.0255,0.0271,
調布 (Chofu),2024-04-11,20:01～21:00,0.0288,0.0252,0.0271,
調布 (Chofu),2024-04-11,19:01～20:00,0.0294,0.0252,0.0272,
調布 (Chofu),2024-04-11,18:01～19:00,0.0294,0.0258,0.0274,
調布 (Chofu),2024-04-11,17:01～18:00,0.0296,0.0245,0.0275,
調布 (Chofu),2024-04-11,16:01～17:00,0.0304,0.0259,0.0274,
調布 (Chofu),2024-04-11,15:01～16:00,0.0290,0.0251,0.0272,
調布 (Chofu),2024-04-11,14:01～15:00,0.0297,0.0254,0.0276,
調布 (Chofu),2024-04-11,13:01～14:00,0.0298,0.0254,0.0277,
調布 (Chofu),2024-04-11,12:01～13:00,0.0304,0.0251,0.0276,
調布 (Chofu),2024-04-11,11:01～12:00,0.0288,0.0252,0.0273,
調布 (Chofu),2024-04-11,10:01～11:00,0.0296,0.0256,0.0276,
調布 (Chofu),2024-04-11,09:01～10:00,0.0293,0.0256,0.0275,
調布 (Chofu),2024-04-11,08:01～09:00,0.0299,0.0249,0.0276,
調布 (Chofu),2024-04-11,07:01～08:00,0.0308,0.0259,0.0278,
調布 (Chofu),2024-04-11,06:01～07:00,0.0304,0.0266,0.0282,
調布 (Chofu),2024-04-11,05:01～06:00,0.0298,0.0259,0.0276,
調布 (Chofu),2024-04-11,04:01～05:00,0.0288,0.0256,0.0274,
調布 (Chofu),2024-04-11,03:01～04:00,0.0290,0.0248,0.0274,
調布 (Chofu),2024-04-11,02:01～03:00,0.0291,0.0249,0.0277,
調布 (Chofu),2024-04-11,01:01～02:00,0.0292,0.0261,0.0274,
調布 (Chofu),2024-04-11,00:01～01:00,0.0290,0.0253,0.0272,
調布 (Chofu),2024-04-10,23:01～24:00,0.0311,0.0252,0.0270,
調布 (Chofu),2024-04-10,22:01～23:00,0.0289,0.0252,0.0269,
調布 (Chofu),2024-04-10,21:01～22:00,0.0297,0.0242,0.0272,
調布 (Chofu),2024-04-10,20:01～21:00,0.0296,0.0255,0.0272,
調布 (Chofu),2024-04-10,19:01～20:00,0.0303,0.0251,0.0271,
調布 (Chofu),2024-04-10,18:01～19:00,0.0293,0.0253,0.0272,
調布 (Chofu),2024-04-10,17:01～18:00,0.0294,0.0256,0.0273,
調布 (Chofu),2024-04-10,16:01～17:00,0.0290,0.0253,0.0271,
調布 (Chofu),2024-04-10,15:01～16:00,0.0294,0.0252,0.0274,
調布 (Chofu),2024-04-10,14:01～15:00,0.0290,0.0254,0.0273,
調布 (Chofu),2024-04-10,13:01～14:00,0.0302,0.0257,0.0274,
調布 (Chofu),2024-04-10,12:01～13:00,0.0292,0.0256,0.0275,
調布 (Chofu),2024-04-10,11:01～12:00,0.0294,0.0233,0.0272,
調布 (Chofu),2024-04-10,10:01～11:00,0.0294,0.0257,0.0275,
調布 (Chofu),2024-04-10,09:01～10:00,0.0293,0.0242,0.0273,
調布 (Chofu),2024-04-10,08:01～09:00,0.0287,0.0255,0.0272,
調布 (Chofu),2024-04-10,07:01～08:00,0.0286,0.0256,0.0271,
調布 (Chofu),2024-04-10,06:01～07:00,0.0301,0.0245,0.0272,
調布 (Chofu),2024-04-10,05:01～06:00,0.0293,0.0255,0.0270,
調布 (Chofu),2024-04-10,04:01～05:00,0.0297,0.0251,0.0271,
調布 (Chofu),2024-04-10,03:01～04:00,0.0286,0.0253,0.0270,
調布 (Chofu),2024-04-10,02:01～03:00,0.0291,0.0255,0.0270,
調布 (Chofu),2024-04-10,01:01～02:00,0.0295,0.0248,0.0270,
調布 (Chofu),2024-04-10,00:01～01:00,0.0289,0.0254,0.0271,
調布 (Chofu),2024-04-09,23:01～24:00,0.0298,0.0248,0.0271,
調布 (Chofu),2024-04-09,22:01～23:00,0.0291,0.0256,0.0272,
調布 (Chofu),2024-04-09,21:01～22:00,0.0297,0.0258,0.0276,
調布 (Chofu),2024-04-09,20:01～21:00,0.0299,0.0257,0.0275,
調布 (Chofu),2024-04-09,19:01～20:00,0.0304,0.0262,0.0280,
調布 (Chofu),2024-04-09,18:01～19:00,0.0299,0.0266,0.0281,
調布 (Chofu),2024-04-09,17:01～18:00,0.0311,0.0268,0.0289,
調布 (Chofu),2024-04-09,16:01～17:00,0.0329,0.0276,0.0298,
調布 (Chofu),2024-04-09,15:01～16:00,0.0345,0.0294,0.0321,
調布 (Chofu),2024-04-09,14:01～15:00,0.0319,0.0266,0.0293,
調布 (Chofu),2024-04-09,13:01～14:00,0.0372,0.0291,0.0328,
調布 (Chofu),2024-04-09,12:01～13:00,0.0410,0.0339,0.0381,
調布 (Chofu),2024-04-09,11:01～12:00,0.0370,0.0316,0.0343,
調布 (Chofu),2024-04-09,10:01～11:00,0.0344,0.0287,0.0315,
調布 (Chofu),2024-04-09,09:01～10:00,0.0319,0.0271,0.0295,
調布 (Chofu),2024-04-09,08:01～09:00,0.0321,0.0273,0.0293,
調布 (Chofu),2024-04-09,07:01～08:00,0.0336,0.0278,0.0303,
調布 (Chofu),2024-04-09,06:01～07:00,0.0346,0.0289,0.0320,
調布 (Chofu),2024-04-09,05:01～06:00,0.0367,0.0315,0.0336,
調布 (Chofu),2024-04-09,04:01～05:00,0.0378,0.0322,0.0343,
調布 (Chofu),2024-04-09,03:01～04:00,0.0367,0.0311,0.0346,
調布 (Chofu),2024-04-09,02:01～03:00,0.0348,0.0273,0.0302,
調布 (Chofu),2024-04-09,01:01～02:00,0.0322,0.0263,0.0293,
調布 (Chofu),2024-04-09,00:01～01:00,0.0321,0.0273,0.0293,
調布 (Chofu),2024-04-08,23:01～24:00,0.0307,0.0264,0.0281,
調布 (Chofu),2024-04-08,22:01～23:00,0.0307,0.0256,0.0280,
調布 (Chofu),2024-04-08,21:01～22:00,0.0308,0.0266,0.0281,
調布 (Chofu),2024-04-08,20:01～21:00,0.0304,0.0247,0.0275,
調布 (Chofu),2024-04-08,19:01～20:00,0.0301,0.0259,0.0276,
調布 (Chofu),2024-04-08,18:01～19:00,0.0302,0.0256,0.0278,
調布 (Chofu),2024-04-08,17:01～18:00,0.0301,0.0249,0.0280,
調布 (Chofu),2024-04-08,16:01～17:00,0.0302,0.0262,0.0280,
調布 (Chofu),2024-04-08,15:01～16:00,0.0297,0.0255,0.0281,
調布 (Chofu),2024-04-08,14:01～15:00,0.0303,0.0252,0.0278,
調布 (Chofu),2024-04-08,13:01～14:00,0.0294,0.0254,0.0276,
調布 (Chofu),2024-04-08,12:01～13:00,0.0450,0.0259,0.0278,
調布 (Chofu),2024-04-08,11:01～12:00,0.0302,0.0252,0.0276,
調布 (Chofu),2024-04-08,10:01～11:00,0.0305,0.0256,0.0279,
調布 (Chofu),2024-04-08,09:01～10:00,0.0297,0.0259,0.0278,
調布 (Chofu),2024-04-08,08:01～09:00,0.0304,0.0259,0.0278,
調布 (Chofu),2024-04-08,07:01～08:00,0.0307,0.0270,0.0288,
調布 (Chofu),2024-04-08,06:01～07:00,0.0311,0.0270,0.0291,
調布 (Chofu),2024-04-08,05:01～06:00,0.0318,0.0272,0.0289,
調布 (Chofu),2024-04-08,04:01～05:00,0.0313,0.0272,0.0291,
調布 (Chofu),2024-04-08,03:01～04:00,0.0314,0.0260,0.0287,
調布 (Chofu),2024-04-08,02:01～03:00,0.0298,0.0265,0.0280,
調布 (Chofu),2024-04-08,01:01～02:00,0.0297,0.0265,0.0280,
調布 (Chofu),2024-04-08,00:01～01:00,0.0300,0.0257,0.0277,
